Wind_Speed
31 31 30 29 27 26 24 22 21 18 16 15 14 14 14 12 12 15 19 18 20 10 26 28 26 24 15 14 7 8 7 4 4 5 8 10 10 11 15 18 23 18 15 11 7 9 15 10 2 1 15 17 8 13
32 31 32 29 27 26 22 19 16 14 13 14 13 13 13 12 14 14 12 11 15 20 17 23 25 23 24 29 24 10 8 7 3 4 3 5 4 3 12 12 3 14 14 8 11 8 5 7 1 3 7 4 9 15
32 30 29 28 24 20 18 17 13 12 14 13 9 11 12 11 14 11 13 9 10 13 26 27 21 13 25 31 20 17 9 6 4 5 5 3 6 4 6 4 14 4 7 7 9 5 9 10 8 8 5 9 19 18
25 24 25 26 21 15 13 10 9 10 12 10 10 10 9 9 7 7 10 9 9 8 7 5 3 5 7 15 28 32 21 5 7 12 4 3 4 7 1 3 4 6 4 9 5 6 14 16 12 9 6 9 16 19
23 23 22 23 17 13 11 8 8 10 10 12 6 5 5 6 7 6 8 11 12 8 9 20 25 3 7 20 18 23 23 22 16 7 4 2 5 4 2 3 4 10 6 3 6 11 12 14 12 4 13 16 16 20
23 21 18 18 16 13 12 11 11 10 11 5 4 6 5 8 4 5 3 3 7 10 8 4 10 2 1 11 19 18 18 14 14 8 2 5 10 6 3 2 7 8 6 3 5 8 19 21 12 8 15 17 18 22
21 18 16 16 17 16 14 12 10 10 7 4 4 6 6 7 7 5 4 7 2 6 4 5 4 1 3 9 9 11 14 9 11 10 4 3 5 1 2 3 10 8 12 16 19 24 17 17 16 13 11 15 17 17
20 18 18 18 18 16 14 13 10 10 7 7 7 7 8 10 8 4 4 7 7 5 5 3 4 4 7 8 8 9 10 9 7 4 4 3 1 4 4 8 11 15 18 26 24 25 20 19 21 9 9 11 15 11
20 18 17 17 18 17 15 14 13 12 12 9 7 7 3 1 2 4 11 4 7 6 5 3 3 2 3 3 6 9 9 5 3 1 2 4 3 4 6 14 16 17 13 16 16 17 17 18 14 10 11 11 10 8
19 20 19 18 18 14 15 17 15 15 11 9 6 3 0 1 5 6 1 4 4 4 5 4 5 5 7 3 7 8 7 5 2 2 7 3 5 15 16 17 19 20 18 14 20 17 20 12 13 12 15 11 8 7
20 19 18 19 15 17 17 18 21 17 11 7 6 4 6 6 2 3 2 3 3 3 5 5 6 7 3 3 1 3 2 7 3 3 2 3 2 4 12 16 18 24 23 18 14 13 15 8 7 8 7 5 4 6
19 18 18 17 17 17 19 21 22 16 10 8 9 8 6 3 3 4 3 4 3 3 3 5 10 7 5 4 5 3 1 2 5 3 3 3 4 7 11 9 12 12 11 12 12 8 5 5 6 4 3 3 4 4
16 16 16 18 20 22 23 21 18 16 11 4 3 3 5 3 2 5 8 4 3 8 7 11 6 4 5 5 4 2 2 4 6 3 3 4 14 16 12 10 13 13 12 10 9 7 6 6 7 5 4 5 4 3
13 16 21 24 26 24 20 16 15 12 5 4 6 5 5 4 4 2 6 6 9 12 16 11 8 4 5 3 3 3 4 1 4 4 4 6 13 14 12 10 11 10 10 9 8 7 8 10 11 8 7 5 6 6
17 18 26 28 27 23 20 15 14 11 5 4 4 4 4 8 7 7 8 7 8 12 10 4 5 6 5 3 4 4 4 5 6 3 4 13 12 13 13 14 12 10 8 6 6 6 7 7 8 9 8 7 7 8
20 21 27 30 27 19 19 12 13 8 4 4 5 2 12 8 15 19 18 15 15 13 5 2 2 3 6 4 7 7 4 5 3 3 9 11 9 9 10 10 11 9 8 7 7 7 9 11 8 6 7 9 9 7
20 15 26 30 26 14 17 11 6 6 5 6 6 15 14 13 14 17 18 19 16 7 4 3 5 6 4 5 4 4 2 3 3 6 7 9 7 7 8 8 9 8 8 7 6 5 5 6 8 5 7 9 10 9
18 23 25 27 27 14 11 9 4 5 5 8 7 15 13 12 16 18 18 19 12 9 10 4 5 7 4 3 3 3 2 6 7 7 8 8 6 8 8 8 8 9 10 10 9 7 8 8 9 10 9 10 6 8
22 23 23 24 22 10 6 6 6 5 7 9 13 14 12 12 15 15 15 13 9 8 3 5 6 5 4 5 8 8 8 7 5 8 7 8 10 9 7 5 7 9 9 10 11 11 10 10 9 9 9 9 10 9
16 14 18 15 14 5 4 5 6 4 7 8 12 14 9 15 15 15 16 17 15 13 10 5 6 9 9 9 8 8 8 8 5 4 6 8 10 10 11 10 9 10 12 12 14 14 12 11 11 11 10 10 10 10
12 16 12 11 6 9 5 6 4 5 6 5 14 10 9 12 16 18 18 14 17 14 10 10 9 8 7 6 6 5 6 7 7 5 5 10 13 13 12 12 12 13 13 13 13 13 14 13 13 13 12 11 11 12
14 11 8 9 7 5 4 9 4 7 5 7 8 9 7 10 13 16 14 13 8 9 7 9 9 9 10 10 8 10 11 11 8 8 8 10 7 7 10 11 10 11 13 13 13 14 14 14 15 14 13 14 13 13
9 9 5 6 4 6 3 8 4 6 4 7 8 5 6 7 12 12 5 7 8 12 17 15 14 14 15 16 19 18 17 18 15 10 7 4 3 4 4 6 8 8 9 11 12 13 14 14 13 13 13 14 13 11
8 5 4 4 6 4 5 5 3 4 3 3 2 3 3 5 8 4 4 5 7 10 10 11 14 18 17 20 20 20 19 16 14 12 10 6 3 3 3 3 4 6 8 10 12 14 15 14 14 13 14 13 11 11
4 5 4 5 4 5 3 3 3 2 3 3 3 2 3 3 3 5 7 11 16 17 17 16 18 19 19 18 19 20 21 19 16 13 10 8 6 5 5 5 5 7 10 14 15 17 17 16 14 13 14 13 13 13
3 3 3 6 4 4 5 6 6 5 2 1 1 2 2 2 5 5 5 12 15 16 16 17 17 17 19 19 20 21 20 18 15 11 11 10 8 8 8 9 10 10 14 15 17 18 18 16 15 14 14 14 15 16
4 6 2 4 3 3 3 2 3 3 3 4 2 3 2 3 5 5 10 11 12 12 13 13 14 16 16 17 18 18 17 16 14 10 8 8 9 11 11 11 12 13 15 14 15 14 14 14 14 14 15 15 16 16
3 3 5 7 3 2 4 3 2 3 3 2 2 4 3 6 5 8 9 9 8 10 12 14 15 16 17 17 17 18 17 15 12 10 7 5 9 11 14 12 12 15 12 15 14 13 13 13 14 15 16 17 17 16
3 5 5 5 2 1 2 4 7 6 7 5 2 3 6 10 9 9 12 12 10 12 16 17 15 15 16 16 17 16 15 16 17 16 14 13 13 13 14 13 14 14 14 14 16 17 17 17 14 15 14 14 14 14
7 7 4 4 4 4 5 6 8 8 11 13 19 27 25 21 18 18 21 23 23 14 11 10 13 17 19 20 18 16 13 14 14 13 14 13 13 13 15 16 16 15 15 15 15 15 16 16 12 12 13 13 13 14
8 8 7 5 6 6 7 11 15 18 19 21 18 15 7 5 11 11 11 11 10 10 12 14 16 17 19 18 17 15 12 12 11 12 12 11 13 14 16 16 15 15 15 14 14 14 15 14 13 13 13 14 14 14
7 9 11 7 7 6 8 4 6 13 8 5 2 2 3 4 4 3 9 10 12 14 14 15 16 17 16 13 11 10 9 9 11 13 14 14 14 14 13 13 13 13 13 13 13 13 14 14 14 14 14 15 15 15
6 10 10 9 8 8 6 3 3 5 4 4 2 2 1 3 5 5 7 9 10 11 13 13 13 13 12 12 11 10 11 11 16 20 20 17 15 13 12 12 12 14 13 13 14 13 14 14 15 15 15 16 16 16
Wind_Direction
327 329 324 318 316 318 308 303 298 297 294 296 296 288 286 272 269 265 254 238 240 254 269 273 267 264 264 277 274 348 313 206 268 247 241 225 229 198 217 184 176 193 202 210 205 234 234 15 12 322 332 305 266 207
328 326 326 321 315 313 306 305 299 294 295 292 294 289 293 276 274 260 258 252 249 242 262 274 269 262 250 249 262 266 281 313 291 294 309 307 284 223 204 199 159 198 208 195 225 232 74 35 62 85 357 57 103 123
327 329 330 328 321 316 309 306 301 287 304 306 289 298 289 286 285 265 261 254 246 275 283 269 271 271 245 234 229 239 244 233 258 349 306 288 271 302 215 261 176 210 181 189 183 103 86 100 89 74 64 95 103 103
334 336 339 338 334 330 323 321 318 305 308 301 299 302 289 291 277 251 251 260 238 275 280 329 341 259 255 225 220 220 234 299 329 324 297 279 284 347 35 318 296 16 291 158 125 137 115 72 64 82 107 98 94 89
348 344 348 350 347 345 345 341 343 334 327 321 302 295 291 284 285 281 266 250 249 253 302 302 300 253 239 208 203 215 227 234 265 286 236 267 310 317 110 138 51 340 349 202 189 129 91 69 47 64 92 82 81 79
357 358 355 359 5 5 351 341 335 335 331 334 325 313 310 329 313 290 259 264 257 231 288 291 325 280 315 183 201 207 209 222 225 245 244 319 295 290 54 95 12 344 346 274 93 105 103 104 89 52 80 77 76 78
358 7 9 5 5 8 3 0 355 342 344 328 316 318 322 320 313 278 319 309 336 191 255 287 290 164 164 142 154 173 187 198 219 241 168 224 265 354 47 48 2 61 74 85 109 106 87 105 77 14 38 74 68 56
14 19 21 19 10 8 2 355 355 355 340 329 313 310 305 309 310 313 281 280 236 264 261 280 292 264 171 170 149 166 170 204 209 280 87 244 355 58 73 33 76 96 88 81 76 90 95 103 93 49 54 61 74 54
9 11 13 13 7 13 19 15 4 347 339 336 323 310 320 328 256 291 320 273 226 244 303 264 294 18 340 177 113 162 165 190 310 262 179 65 19 53 58 63 56 61 86 93 86 83 68 69 91 89 72 60 54 77
7 12 8 3 8 13 9 1 352 347 343 341 353 312 286 255 289 288 206 193 191 229 236 262 302 296 345 323 167 158 196 133 270 219 98 66 66 77 60 65 62 64 70 81 65 65 73 40 40 16 31 25 358 13
5 7 2 2 11 10 10 7 0 353 8 360 346 325 312 318 301 259 276 250 193 247 217 257 299 309 336 322 236 233 156 150 181 160 105 82 79 98 96 79 72 70 73 76 91 81 71 47 14 35 30 9 4 30
4 7 10 14 8 4 353 351 352 357 339 319 315 317 325 315 277 274 248 177 207 291 347 311 346 288 279 254 257 172 228 221 102 210 95 45 128 111 94 114 112 113 109 88 79 79 84 96 74 44 12 346 18 29
21 22 13 3 352 343 340 342 344 342 342 359 338 313 331 357 342 354 352 22 31 317 343 343 342 317 269 237 253 293 48 75 109 32 64 79 116 129 113 98 107 106 110 117 109 100 93 84 84 73 51 28 37 55
16 8 360 357 355 350 349 349 351 3 29 36 2 15 12 3 350 329 333 315 313 328 339 342 55 311 322 329 329 31 73 246 91 58 73 113 110 111 116 113 108 114 117 112 102 98 83 65 61 61 59 58 71 70
358 350 359 1 355 354 355 4 5 18 46 55 42 27 354 288 288 320 329 301 333 323 330 321 32 322 359 13 17 359 53 42 30 69 113 121 110 113 115 115 116 116 112 99 90 75 64 58 61 57 57 60 70 71
352 2 358 355 359 358 3 10 23 27 17 31 54 15 355 8 11 10 5 357 350 337 319 291 2 3 40 25 16 18 46 12 49 29 78 111 108 107 102 94 92 94 82 76 88 83 67 55 60 61 68 62 58 57
350 350 346 352 359 360 12 24 19 13 25 22 13 15 11 13 360 354 356 355 349 347 21 17 35 22 16 38 25 31 7 264 35 101 100 88 83 99 93 81 77 68 76 70 74 68 50 39 39 48 54 41 32 23
339 342 346 350 356 8 12 15 23 31 29 20 2 357 355 355 351 354 353 355 10 24 36 58 39 30 55 33 35 88 321 15 70 75 71 69 67 61 54 49 51 49 41 41 33 37 33 33 27 32 25 14 13 18
333 334 339 346 352 5 8 12 25 19 16 9 1 359 355 357 4 359 3 10 19 33 51 51 55 41 49 51 51 42 43 46 68 84 72 69 65 56 50 44 42 41 45 44 41 42 44 42 33 22 10 5 4 8
326 332 339 346 2 8 11 15 16 360 9 345 353 353 1 4 3 18 31 30 49 51 43 52 55 43 39 34 24 20 18 14 17 80 67 44 33 37 39 47 55 61 63 57 46 50 41 34 26 17 4 3 353 340
342 344 357 15 27 39 46 11 14 358 335 344 356 1 11 19 24 26 22 31 56 41 59 45 45 33 12 14 16 8 6 10 19 33 52 63 59 64 66 64 62 60 56 48 37 25 20 13 1 353 347 341 328 323
349 357 8 26 27 26 50 11 348 341 340 345 3 11 22 18 15 15 3 31 38 27 25 25 37 39 45 46 45 35 33 32 41 69 81 61 57 57 47 42 43 42 36 28 19 10 1 353 350 349 340 331 328 320
358 9 14 22 6 28 36 8 33 12 21 8 7 23 5 0 1 5 40 16 31 50 47 44 40 40 48 56 64 56 46 39 45 44 29 58 63 89 73 42 37 27 18 11 6 0 353 350 343 346 338 336 333 332
6 15 27 12 11 19 359 16 22 20 36 29 37 354 324 321 327 11 50 47 14 18 38 50 66 65 58 48 42 33 27 22 21 29 32 46 60 69 46 17 10 11 11 356 350 347 344 338 339 337 336 334 332 331
349 12 11 5 0 337 359 12 27 45 49 2 25 41 28 335 26 44 51 44 48 55 63 59 56 51 46 40 32 24 17 12 4 358 6 358 341 323 320 338 342 350 354 351 344 339 335 330 326 326 330 327 324 322
47 28 30 359 1 344 351 345 13 20 348 322 51 3 322 315 54 54 36 25 41 50 49 46 44 45 40 30 20 12 6 3 5 5 1 5 358 347 342 335 331 332 343 341 334 330 326 323 319 318 319 319 320 317
14 41 359 334 306 311 281 274 310 309 326 9 16 358 356 49 61 48 33 46 55 56 60 53 45 39 31 22 16 11 7 8 6 8 12 25 30 29 19 5 351 337 342 335 336 331 329 325 321 319 318 317 317 318
334 329 332 343 295 258 306 326 335 350 349 1 324 13 36 24 54 26 27 28 45 48 47 43 34 26 22 13 8 7 7 8 6 1 348 353 13 3 2 355 347 2 356 349 351 345 346 337 327 322 318 316 314 314
306 327 325 308 309 262 340 357 7 26 0 320 19 59 85 69 62 53 44 53 62 40 26 16 6 5 5 6 4 0 360 5 3 360 357 353 353 353 355 356 352 349 344 341 338 339 336 337 332 334 331 329 324 320
355 339 313 328 349 35 50 30 53 53 60 78 101 99 87 70 62 51 34 31 32 31 14 6 4 8 2 357 356 1 2 1 9 11 9 9 1 348 347 346 345 343 341 340 338 337 336 348 345 339 339 340 339 339
343 349 342 346 25 53 79 97 87 83 91 104 115 113 109 104 58 63 37 33 32 13 6 3 0 357 357 357 356 358 5 7 13 13 12 359 349 345 344 344 343 344 345 348 351 353 355 359 357 353 350 347 347 346
352 3 2 13 35 58 130 153 84 107 105 102 123 174 140 155 122 57 20 20 7 2 358 359 357 355 356 3 3 10 13 10 11 1 357 353 348 348 356 353 358 358 359 0 359 356 356 355 352 350 347 345 342 339
6 19 16 12 18 19 27 150 132 99 109 120 105 145 60 31 64 36 12 14 18 8 1 356 356 356 1 8 11 6 5 353 347 347 344 359 5 16 21 10 12 6 5 1 358 356 353 351 348 345 343 341 339 336
Height
1478 1472 1467 1462 1457 1453 1450 1447 1446 1444 1442 1442 1440 1439 1438 1439 1438 1438 1435 1438 1440 1435 1427 1426 1425 1424 1426 1423 1415 1414 1412 1410 1405 1397 1377 1358 1348 1343 1347 1344 1362 1369 1373 1369 1373 1386 1387 1382 1375 1380 1379 1371 1364 1360
1473 1467 1461 1456 1451 1448 1445 1442 1441 1439 1438 1437 1436 1435 1435 1434 1434 1434 1433 1434 1434 1432 1424 1419 1418 1418 1416 1420 1421 1420 1416 1415 1409 1401 1384 1376 1359 1342 1345 1351 1348 1360 1356 1361 1375 1368 1381 1381 1384 1379 1381 1376 1368 1366
1468 1462 1457 1451 1446 1442 1440 1438 1437 1436 1435 1433 1433 1432 1431 1431 1430 1430 1429 1430 1431 1428 1418 1408 1404 1404 1406 1409 1415 1416 1413 1412 1408 1408 1402 1393 1381 1362 1361 1346 1346 1357 1359 1364 1376 1378 1380 1385 1386 1382 1388 1386 1381 1380
1463 1458 1453 1448 1442 1438 1437 1435 1434 1433 1432 1430 1430 1429 1428 1428 1427 1427 1426 1428 1428 1426 1418 1401 1399 1400 1401 1403 1404 1407 1408 1410 1410 1409 1405 1397 1385 1370 1365 1364 1359 1368 1369 1368 1373 1383 1382 1385 1389 1391 1396 1394 1390 1388
1461 1456 1452 1447 1441 1438 1436 1435 1433 1432 1430 1429 1427 1427 1426 1426 1425 1425 1424 1425 1425 1427 1414 1403 1397 1394 1392 1396 1399 1403 1407 1411 1414 1411 1404 1395 1384 1379 1371 1374 1385 1391 1382 1368 1370 1379 1383 1388 1394 1401 1395 1392 1392 1390
1460 1455 1451 1447 1443 1440 1438 1435 1434 1431 1430 1428 1427 1426 1426 1425 1424 1424 1422 1421 1420 1422 1420 1402 1393 1390 1391 1392 1397 1401 1405 1410 1410 1401 1400 1396 1388 1385 1382 1390 1396 1393 1389 1387 1383 1385 1390 1389 1402 1404 1398 1395 1396 1394
1460 1456 1453 1449 1445 1442 1439 1436 1433 1432 1429 1428 1427 1426 1425 1424 1423 1424 1423 1423 1419 1421 1419 1409 1391 1389 1389 1391 1395 1398 1402 1403 1404 1395 1397 1395 1390 1385 1392 1396 1396 1394 1392 1390 1392 1393 1399 1402 1401 1405 1405 1401 1400 1401
1463 1458 1455 1451 1447 1444 1440 1437 1434 1432 1430 1428 1426 1425 1424 1423 1421 1421 1420 1419 1419 1419 1417 1410 1395 1386 1387 1385 1389 1394 1396 1399 1395 1389 1392 1392 1390 1390 1398 1400 1398 1399 1399 1396 1398 1400 1406 1411 1405 1411 1411 1409 1407 1410
1465 1461 1457 1452 1449 1445 1442 1438 1435 1432 1429 1427 1425 1423 1423 1422 1422 1420 1417 1416 1417 1421 1415 1407 1397 1386 1384 1381 1384 1390 1390 1391 1391 1387 1385 1389 1395 1398 1405 1404 1403 1401 1403 1403 1402 1403 1408 1410 1416 1417 1413 1412 1413 1415
1467 1463 1458 1455 1451 1447 1444 1440 1436 1432 1429 1426 1424 1424 1422 1422 1420 1419 1418 1418 1417 1415 1414 1406 1397 1391 1389 1378 1379 1379 1381 1390 1395 1388 1388 1396 1405 1411 1409 1408 1407 1408 1407 1408 1406 1410 1412 1411 1412 1412 1406 1408 1414 1413
1469 1465 1461 1456 1452 1449 1445 1441 1437 1432 1429 1428 1427 1425 1422 1420 1419 1417 1415 1413 1413 1409 1404 1400 1397 1393 1390 1384 1377 1373 1370 1379 1391 1387 1390 1399 1411 1413 1413 1412 1412 1411 1411 1415 1417 1417 1414 1412 1415 1413 1414 1416 1416 1414
1471 1466 1462 1458 1455 1451 1446 1441 1437 1434 1432 1430 1427 1424 1422 1421 1418 1416 1408 1406 1410 1401 1397 1396 1395 1393 1390 1388 1381 1374 1367 1367 1379 1380 1383 1406 1415 1415 1414 1416 1415 1416 1417 1416 1417 1419 1420 1420 1417 1418 1419 1420 1417 1418
1473 1468 1464 1460 1456 1451 1445 1441 1437 1433 1430 1429 1430 1429 1426 1424 1420 1416 1411 1404 1404 1402 1398 1397 1393 1393 1388 1385 1377 1370 1369 1379 1379 1384 1395 1409 1413 1418 1417 1418 1418 1418 1421 1424 1424 1425 1425 1425 1423 1422 1423 1420 1418 1421
1474 1469 1465 1461 1456 1449 1445 1440 1435 1432 1430 1432 1432 1431 1432 1429 1427 1422 1419 1415 1409 1405 1401 1399 1395 1396 1385 1380 1377 1375 1375 1377 1383 1395 1408 1416 1417 1417 1419 1420 1420 1423 1425 1426 1427 1428 1427 1425 1423 1423 1423 1424 1422 1422
1475 1471 1465 1461 1455 1449 1445 1441 1437 1434 1434 1436 1438 1439 1436 1433 1427 1421 1417 1412 1409 1407 1404 1397 1397 1395 1385 1383 1384 1382 1384 1397 1406 1413 1414 1417 1418 1421 1423 1424 1425 1427 1428 1427 1428 1428 1427 1426 1424 1425 1425 1423 1422 1421
1475 1470 1466 1461 1455 1450 1446 1443 1441 1439 1438 1439 1440 1440 1436 1430 1424 1421 1418 1414 1411 1407 1404 1401 1399 1397 1397 1399 1403 1402 1407 1418 1417 1416 1419 1420 1422 1423 1424 1425 1426 1427 1427 1428 1427 1427 1427 1426 1426 1427 1427 1426 1423 1422
1475 1472 1467 1461 1456 1451 1448 1445 1444 1444 1443 1444 1444 1442 1439 1435 1432 1426 1422 1418 1414 1409 1405 1404 1407 1411 1406 1413 1422 1425 1430 1428 1423 1423 1423 1423 1423 1425 1425 1425 1426 1427 1428 1428 1428 1427 1427 1427 1427 1426 1424 1422 1420 1422
1476 1471 1467 1461 1456 1451 1450 1448 1449 1449 1448 1448 1445 1445 1442 1439 1435 1430 1427 1423 1418 1414 1412 1415 1417 1420 1424 1428 1430 1432 1429 1427 1426 1425 1425 1426 1427 1427 1427 1426 1426 1426 1427 1426 1427 1426 1425 1425 1424 1422 1422 1422 1422 1422
1475 1471 1467 1463 1458 1455 1455 1455 1454 1453 1453 1452 1451 1447 1444 1441 1438 1435 1431 1426 1423 1421 1420 1420 1424 1430 1434 1435 1435 1433 1432 1430 1429 1428 1429 1429 1428 1428 1429 1428 1427 1427 1427 1427 1427 1427 1425 1425 1425 1426 1426 1425 1423 1424
1474 1471 1467 1464 1461 1460 1460 1460 1459 1458 1457 1457 1453 1450 1446 1444 1441 1438 1435 1432 1429 1426 1427 1432 1437 1439 1438 1439 1438 1436 1434 1433 1432 1431 1432 1431 1430 1430 1429 1430 1431 1431 1430 1430 1430 1428 1428 1430 1429 1429 1429 1428 1426 1427
1472 1470 1466 1464 1463 1463 1465 1465 1463 1463 1461 1458 1456 1453 1451 1448 1445 1442 1440 1438 1436 1437 1439 1442 1442 1443 1442 1440 1440 1439 1439 1437 1437 1436 1436 1434 1434 1435 1435 1435 1436 1435 1434 1434 1434 1434 1433 1433 1432 1432 1430 1428 1428 1427
1473 1470 1468 1467 1467 1466 1468 1468 1468 1466 1464 1462 1459 1457 1455 1453 1452 1450 1449 1446 1447 1449 1449 1448 1446 1446 1445 1443 1442 1441 1440 1439 1438 1438 1439 1439 1439 1439 1439 1439 1439 1438 1438 1437 1437 1436 1435 1433 1431 1430 1428 1427 1426 1424
1473 1472 1471 1470 1469 1469 1473 1469 1469 1469 1468 1467 1464 1462 1463 1460 1460 1458 1458 1457 1457 1455 1453 1452 1452 1450 1449 1448 1447 1446 1445 1444 1443 1443 1442 1441 1441 1441 1441 1441 1442 1441 1441 1440 1439 1438 1436 1434 1432 1430 1429 1426 1425 1423
1475 1474 1474 1473 1473 1473 1473 1472 1472 1471 1471 1471 1472 1471 1469 1467 1464 1462 1461 1463 1462 1461 1459 1458 1456 1455 1454 1452 1452 1451 1450 1448 1447 1446 1445 1444 1444 1444 1444 1444 1443 1443 1442 1441 1439 1438 1436 1434 1432 1430 1428 1426 1424 1422
1481 1480 1479 1478 1477 1475 1473 1472 1472 1471 1470 1469 1470 1468 1468 1468 1465 1464 1466 1468 1467 1466 1465 1464 1463 1461 1460 1459 1458 1457 1455 1453 1450 1448 1447 1446 1445 1444 1443 1443 1443 1443 1442 1441 1439 1438 1436 1433 1431 1430 1428 1426 1425 1423
1482 1481 1482 1479 1479 1477 1475 1470 1470 1471 1471 1469 1468 1468 1468 1465 1463 1470 1474 1475 1473 1472 1470 1469 1468 1467 1466 1465 1463 1461 1459 1456 1453 1451 1450 1448 1447 1446 1444 1444 1443 1442 1441 1441 1439 1437 1435 1432 1431 1429 1427 1425 1423 1422
1482 1481 1482 1480 1480 1480 1477 1476 1475 1473 1469 1468 1468 1467 1464 1465 1471 1481 1482 1480 1479 1477 1476 1475 1473 1471 1470 1469 1467 1464 1461 1458 1456 1455 1453 1451 1449 1448 1448 1447 1446 1444 1442 1439 1438 1436 1433 1431 1429 1427 1425 1423 1422 1419
1485 1483 1481 1481 1480 1479 1477 1473 1472 1471 1470 1471 1471 1468 1471 1474 1485 1488 1487 1485 1484 1483 1481 1479 1477 1475 1473 1470 1468 1465 1462 1460 1458 1456 1453 1452 1451 1449 1448 1447 1445 1442 1440 1437 1436 1434 1432 1430 1428 1426 1424 1421 1419 1417
1485 1484 1483 1479 1477 1477 1477 1475 1473 1475 1476 1473 1471 1475 1484 1490 1491 1490 1488 1486 1485 1484 1481 1480 1480 1478 1474 1472 1469 1466 1464 1461 1459 1456 1454 1452 1451 1451 1449 1447 1445 1442 1440 1438 1434 1432 1429 1426 1424 1422 1420 1418 1416 1413
1484 1483 1481 1478 1476 1476 1479 1479 1479 1479 1479 1479 1481 1485 1489 1491 1491 1491 1489 1487 1486 1486 1485 1483 1481 1478 1475 1472 1470 1467 1465 1463 1461 1459 1456 1455 1453 1452 1449 1446 1444 1441 1438 1436 1433 1431 1427 1424 1422 1421 1419 1416 1414 1412
1486 1484 1481 1479 1479 1481 1482 1482 1483 1484 1485 1486 1488 1489 1490 1492 1493 1493 1491 1489 1489 1488 1486 1484 1481 1479 1476 1473 1470 1467 1466 1464 1462 1460 1458 1456 1454 1451 1448 1445 1442 1440 1437 1434 1432 1429 1427 1424 1422 1420 1418 1416 1413 1411
1487 1486 1484 1481 1482 1483 1483 1483 1484 1489 1490 1490 1490 1491 1492 1491 1492 1493 1492 1492 1490 1488 1486 1484 1481 1479 1476 1473 1471 1469 1466 1464 1461 1459 1455 1454 1451 1448 1446 1444 1441 1439 1436 1434 1432 1430 1427 1425 1422 1420 1418 1415 1413 1410
1486 1484 1484 1481 1480 1479 1481 1482 1484 1489 1490 1491 1491 1491 1490 1490 1492 1494 1493 1491 1490 1489 1487 1484 1482 1479 1476 1473 1471 1469 1467 1465 1460 1458 1455 1451 1449 1446 1445 1443 1441 1439 1437 1434 1432 1430 1427 1425 1422 1420 1417 1414 1411 1408